[[{"header":{"parameterUnit":"m.s-1","parameterCategory":1,"la1":30.2991,"la2":30.254,"lo1":-89.0895,"lo2":-89.0444,"dy":0.0017,"dx":0.0017,"nx":28,"ny":28,"refTime":"2024-08-07T09:00:00:Z","depth":0,"parameterNumber":2,"parameterNumberName":"U-component_of_WINDS"},"data":[0,0,0,0,0,0,0,0,0,0,0,0,0,0,0,0,0,0,0,0,0,0,0,0,0,0,0,0,0,0,0,0,0,0,0,0,0,0,0,0,0,0,0,0,0,0,0,0,0,0,0,0,0,0,0,0,0,0,2.6566,2.6566,0,2.6607,2.6608,2.6608,2.6542,2.654,2.6538,2.6536,2.6579,2.6583,2.6586,0,0,0,0,0,0,0,0,0,0,0,0,0,2.6432,2.6435,2.6566,2.6566,2.6567,2.6607,2.6608,2.6608,2.6543,2.654,2.6537,2.6535,2.6578,2.6582,2.6586,0,0,0,0,0,0,0,0,0,0,0,0,0,2.6483,2.6435,2.6566,2.6539,2.6537,2.6607,2.6608,2.6609,2.6543,2.654,2.6536,2.6533,2.6577,2.6582,2.6587,2.6685,0,0,2.6602,2.6604,0,0,0,0,0,0,0,0,2.6481,2.6488,2.6542,2.6541,2.6539,2.6566,2.6576,2.6634,2.6544,2.6541,2.6536,2.6532,2.6578,2.6582,2.6598,2.6687,2.6689,2.6602,2.6605,2.6607,2.6609,0,0,0,0,0,0,0,2.6477,2.6486,2.6582,2.6543,2.6541,2.6526,2.6529,2.6587,2.6578,2.6541,2.6536,2.6542,2.6576,2.6593,2.6598,2.669,2.6602,2.6606,2.6609,2.6611,2.6864,2.6868,0,0,0,0,0,0,2.6477,2.6484,2.6581,2.6584,2.6501,2.6531,2.6535,2.6561,2.6577,2.6576,2.6545,2.6539,2.6586,2.6593,2.66,2.6717,2.6607,2.6612,2.6615,2.6861,2.6865,2.6869,0,0,0,0,0,0,2.6474,2.6486,2.6579,2.6532,2.6543,2.6537,2.6567,2.6564,2.658,2.658,2.6578,2.6564,2.6584,2.6593,2.6665,2.6718,2.6614,2.6618,2.6856,2.6862,2.6867,2.6954,0,0,0,0,0,0,2.647,2.6485,2.6522,2.6534,2.6546,2.6644,2.657,2.6567,2.6589,2.6581,2.6597,2.6597,2.6582,2.6658,2.667,2.6723,2.6622,2.6851,2.6859,2.6865,2.6946,2.6961,2.6975,0,0,0,0,0,2.6466,2.6545,2.6524,2.6537,2.6592,2.6647,2.6654,2.6635,2.6593,2.6631,2.6631,2.6596,2.671,2.6666,2.6679,2.6734,2.6848,2.6857,2.6865,2.6939,2.6958,2.6974,0,0,0,0,0,0,2.654,2.6546,2.6523,2.6608,2.6628,2.6635,2.6682,2.6655,2.6687,2.6678,2.6653,2.6658,2.6736,2.6742,2.6692,2.6831,2.6772,2.6784,2.6825,2.6843,2.6857,2.6854,2.6626,0,0,0,0,0,2.6566,2.661,2.6613,2.6688,2.6698,2.6689,2.6712,2.6696,2.6715,2.6723,2.6728,2.6748,2.6788,2.6816,2.6853,2.6946,2.695,2.6991,2.7005,2.7017,2.7028,2.7079,2.7098,2.6897,2.6897,2.6897,0,0,2.6621,2.663,2.6659,2.6703,2.6716,2.6762,2.6696,2.6748,2.6782,2.673,2.6799,2.6804,2.6825,2.6909,2.6946,2.6916,2.7084,2.7028,2.7037,2.7041,2.709,2.7109,2.7126,2.6903,2.6902,2.6901,0,0,2.6745,2.6755,2.6819,2.6834,2.6854,2.6848,2.6863,2.6875,2.6877,2.6945,2.6908,2.6949,2.7018,2.7035,2.7053,2.7185,2.7154,2.7197,2.7273,2.7323,2.7339,2.7353,2.7402,2.7419,2.7207,2.7208,2.7208,0,2.6811,2.6879,2.6856,2.6911,2.6932,2.6887,2.6952,2.6967,2.6999,2.7015,2.6981,2.7069,2.708,2.7168,2.72,2.7215,2.7233,2.7196,2.7339,2.7352,2.7365,2.7411,2.7429,2.7213,2.7212,2.7212,2.7211,0,2.6959,2.7007,2.7057,2.7089,2.7115,2.7175,2.7162,2.7192,2.7173,2.717,2.7242,2.7253,2.7292,2.7312,2.7294,2.7398,2.7379,2.7343,2.7283,2.739,2.7433,2.745,2.722,2.7218,2.7217,2.7216,0,0,2.7132,2.715,2.7169,2.7184,2.7203,2.724,2.7298,2.7336,2.7363,2.7387,2.7436,2.7496,2.7463,2.7483,2.7467,2.7511,2.7617,2.7469,2.747,2.7498,2.7734,2.7762,2.7783,2.7597,2.76,2.7602,2.7732,0,2.7256,2.7356,2.7338,2.7436,2.7481,2.7439,2.749,2.7508,2.7507,2.7545,2.7544,2.7588,2.754,2.7552,2.7594,2.7595,2.7664,2.7585,2.7643,2.7646,2.7641,2.7805,2.7835,2.7957,2.7749,2.7752,2.7754,0,2.7415,2.7445,2.7547,2.7561,2.7579,2.7625,2.7659,2.7696,2.7716,2.7712,2.7736,2.7711,2.7771,2.7709,2.7791,2.7738,2.7761,2.7765,2.7769,2.7775,2.7707,2.7817,2.7996,2.8015,2.778,2.7777,2.7776,0,2.7533,2.7598,2.7668,2.7681,2.7698,2.7732,2.7741,2.7757,2.7782,2.7812,2.7828,2.7865,2.7885,2.7914,2.7901,2.7858,2.7987,2.7924,2.7986,2.7987,2.8016,2.8015,2.8203,2.8029,2.8028,2.8028,2.8028,0,2.7674,2.7739,2.7721,2.7765,2.7836,2.7815,2.7886,2.789,2.7906,2.795,2.7915,2.7958,2.7937,2.7978,2.7968,2.8039,2.8048,2.8047,2.8044,2.8051,2.8052,2.8067,2.8059,2.8033,2.8032,2.8031,2.803,0,2.7818,2.7808,2.7883,2.7893,2.7897,2.7949,2.7958,2.8,2.7996,2.8052,2.8064,2.8059,2.8106,2.8096,2.8147,2.814,2.8229,2.8214,2.8223,2.822,2.8284,2.8278,2.8489,2.8516,2.8323,2.8325,2.8326,0,2.791,2.7959,2.7975,2.8002,2.8013,2.8057,2.8082,2.8062,2.809,2.8117,2.8155,2.8199,2.8233,2.831,2.8311,2.835,2.8338,2.8409,2.8343,2.835,2.8341,2.8339,2.8344,2.8422,2.8424,2.8426,2.8428,0,2.8075,2.8068,2.8105,2.8141,2.8172,2.8199,2.8223,2.8247,2.823,2.8263,2.831,2.8337,2.8389,2.8434,2.847,2.848,2.8452,2.8448,2.8465,2.8474,2.8477,2.8478,2.826,2.8444,2.8442,2.8441,2.844,2.8439,2.8197,2.8239,2.8257,2.83,2.8316,2.8339,2.8379,2.838,2.8419,2.846,2.8446,2.8501,2.8521,2.8567,2.8581,2.8624,2.8598,2.8622,2.8628,2.8635,2.8643,2.8469,2.863,2.863,2.863,2.8629,2.8629,0,2.8362,2.8371,2.841,2.8445,2.8479,2.8449,2.8474,2.8505,2.8553,2.8574,2.8608,2.8663,2.8706,2.8711,2.8752,2.8786,2.8774,2.8797,2.8796,2.8799,2.8664,2.8646,2.8806,2.8806,2.8806,2.8806,2.8806,2.8806,2.8451,2.8522,2.8517,2.8595,2.8604,2.8657,2.8674,2.8696,2.8712,2.8776,2.8811,2.8814,2.8828,2.887,2.8909,2.8909,2.8927,2.8955,2.8951,2.8826,2.8808,2.8791,2.8774,2.8959,2.8959,2.9083,2.9084,2.9085]},{"header":{"parameterUnit":"m.s-1","parameterCategory":1,"la1":30.2991,"la2":30.254,"lo1":-89.0895,"lo2":-89.0444,"dy":0.0017,"dx":0.0017,"nx":28,"ny":28,"refTime":"2024-08-07T09:00:00:Z","depth":0,"parameterNumber":3,"parameterNumberName":"V-component_of_WINDS"},"data":[0,0,0,0,0,0,0,0,0,0,0,0,0,0,0,0,0,0,0,0,0,0,0,0,0,0,0,0,0,0,0,0,0,0,0,0,0,0,0,0,0,0,0,0,0,0,0,0,0,0,0,0,0,0,0,0,0,0,-2.9192,-2.9194,0,-2.9323,-2.9324,-2.9326,-2.9327,-2.9325,-2.9324,-2.9322,-2.9454,-2.9459,-2.9464,0,0,0,0,0,0,0,0,0,0,0,0,0,-2.8942,-2.8947,-2.9192,-2.9194,-2.9195,-2.9322,-2.9324,-2.9326,-2.9327,-2.9325,-2.9323,-2.9321,-2.9452,-2.9458,-2.9464,0,0,0,0,0,0,0,0,0,0,0,0,0,-2.906,-2.8948,-2.9192,-2.9211,-2.9214,-2.9322,-2.9324,-2.9326,-2.9328,-2.9325,-2.9323,-2.932,-2.945,-2.9458,-2.9465,-2.9561,0,0,-2.9488,-2.9491,0,0,0,0,0,0,0,0,-2.9053,-2.9069,-2.9207,-2.921,-2.9214,-2.9306,-2.9284,-2.9405,-2.9328,-2.9285,-2.9322,-2.9319,-2.9407,-2.9418,-2.9447,-2.9567,-2.9573,-2.9489,-2.9493,-2.9497,-2.9499,0,0,0,0,0,0,0,-2.9045,-2.9063,-2.9244,-2.9209,-2.9213,-2.9213,-2.9227,-2.9307,-2.9358,-2.9288,-2.9289,-2.9304,-2.9408,-2.944,-2.945,-2.9575,-2.9489,-2.9495,-2.95,-2.9503,-2.9781,-2.9783,0,0,0,0,0,0,-2.9033,-2.9056,-2.9239,-2.9248,-2.9126,-2.922,-2.9235,-2.9279,-2.9357,-2.9367,-2.9306,-2.9304,-2.9428,-2.9442,-2.9455,-2.9573,-2.9497,-2.9504,-2.9508,-2.9778,-2.9781,-2.9784,0,0,0,0,0,0,-2.9028,-2.9049,-2.9234,-2.9152,-2.9176,-2.9227,-2.9276,-2.9283,-2.9315,-2.9371,-2.9379,-2.933,-2.9427,-2.9444,-2.9535,-2.9578,-2.9507,-2.9514,-2.9774,-2.9779,-2.9783,-2.981,0,0,0,0,0,0,-2.902,-2.9047,-2.9085,-2.9153,-2.918,-2.9313,-2.9278,-2.9287,-2.9328,-2.9326,-2.9395,-2.9404,-2.9426,-2.9524,-2.9543,-2.9587,-2.952,-2.9771,-2.9776,-2.9781,-2.9805,-2.9814,-2.9822,0,0,0,0,0,-2.9011,-2.9087,-2.9087,-2.9109,-2.9228,-2.9315,-2.9331,-2.9355,-2.9332,-2.937,-2.9405,-2.9402,-2.957,-2.9533,-2.9554,-2.9601,-2.9768,-2.9775,-2.9781,-2.9802,-2.9813,-2.9822,0,0,0,0,0,0,-2.9022,-2.9096,-2.9097,-2.9197,-2.925,-2.9315,-2.9364,-2.9366,-2.9426,-2.9422,-2.9449,-2.9465,-2.9555,-2.9587,-2.9545,-2.9699,-2.9666,-2.9677,-2.9675,-2.9686,-2.9694,-2.9684,-2.9526,0,0,0,0,0,-2.9036,-2.9101,-2.9162,-2.9244,-2.9271,-2.9313,-2.9351,-2.9366,-2.9422,-2.9444,-2.9486,-2.954,-2.9605,-2.9647,-2.971,-2.981,-2.9825,-2.9853,-2.9861,-2.9868,-2.9877,-2.9932,-2.9946,-2.9805,-2.9805,-2.9805,0,0,-2.9065,-2.9114,-2.9153,-2.9247,-2.929,-2.9356,-2.9331,-2.9402,-2.9452,-2.9454,-2.9543,-2.9576,-2.9637,-2.9733,-2.9778,-2.9763,-2.9919,-2.9876,-2.9881,-2.9887,-2.994,-2.9954,-2.9965,-2.981,-2.9809,-2.9808,0,0,-2.9153,-2.9196,-2.9269,-2.9313,-2.9378,-2.9406,-2.9423,-2.9489,-2.9511,-2.96,-2.9603,-2.9662,-2.9773,-2.9817,-2.9854,-2.9958,-2.9957,-2.9977,-3.0022,-3.0075,-3.0087,-3.0096,-3.0134,-3.0147,-2.9986,-2.9986,-2.9987,0,-2.9181,-2.9282,-2.9307,-2.9378,-2.9419,-2.9425,-2.95,-2.954,-2.9622,-2.965,-2.9633,-2.9773,-2.9815,-2.9921,-2.9946,-2.9976,-2.9997,-2.997,-3.0083,-3.0093,-3.0103,-3.0139,-3.0153,-2.9989,-2.9988,-2.9988,-2.9988,0,-2.9313,-2.9382,-2.9434,-2.9514,-2.9561,-2.9633,-2.9669,-2.9713,-2.9723,-2.9752,-2.9843,-2.9894,-2.9967,-2.9993,-3.0003,-3.0101,-3.009,-3.0077,-3.0045,-3.0118,-3.0152,-3.0166,-2.9992,-2.9991,-2.999,-2.999,0,0,-2.9411,-2.9504,-2.9522,-2.9559,-2.9631,-2.9685,-2.9757,-2.983,-2.9867,-2.9923,-2.9985,-3.0079,-3.0068,-3.011,-3.0125,-3.0172,-3.0251,-3.0154,-3.0156,-3.017,-3.0362,-3.0371,-3.0386,-3.0251,-3.0254,-3.0256,-3.0357,0,-2.9506,-2.9636,-2.9661,-2.9773,-2.9838,-2.9844,-2.9907,-2.9958,-2.9987,-3.0046,-3.0077,-3.0144,-3.0124,-3.015,-3.0196,-3.0232,-3.029,-3.0225,-3.0308,-3.0311,-3.0293,-3.0404,-3.0414,-3.0507,-3.037,-3.0372,-3.0374,0,-2.9635,-2.9695,-2.9815,-2.9878,-2.9906,-2.9963,-3.0031,-3.0087,-3.0144,-3.0162,-3.0209,-3.0219,-3.0294,-3.0258,-3.0362,-3.0317,-3.0352,-3.0375,-3.0379,-3.0388,-3.0347,-3.0416,-3.0537,-3.0551,-3.0395,-3.0394,-3.0392,0,-2.9695,-2.9806,-2.9891,-2.9922,-2.9999,-3.0038,-3.0072,-3.0127,-3.0169,-3.0228,-3.0255,-3.0322,-3.0359,-3.041,-3.0438,-3.0409,-3.0539,-3.0506,-3.0556,-3.0555,-3.0583,-3.0581,-3.0711,-3.0606,-3.0606,-3.0605,-3.0605,0,-2.9799,-2.9872,-2.9919,-2.9972,-3.0053,-3.0081,-3.016,-3.0193,-3.0242,-3.0301,-3.031,-3.0365,-3.0399,-3.0458,-3.048,-3.0562,-3.0579,-3.0595,-3.06,-3.0594,-3.0592,-3.0618,-3.0612,-3.0609,-3.0608,-3.0607,-3.0607,0,-2.988,-2.9915,-3.0008,-3.0073,-3.0091,-3.0148,-3.0203,-3.0255,-3.0283,-3.0358,-3.0377,-3.0422,-3.0493,-3.0525,-3.0612,-3.0627,-3.0721,-3.0721,-3.0702,-3.0703,-3.0752,-3.0747,-3.0903,-3.0925,-3.0805,-3.0806,-3.0807,0,-2.9944,-3.0,-3.0071,-3.0111,-3.0146,-3.0211,-3.0254,-3.0283,-3.0327,-3.0397,-3.0439,-3.051,-3.0569,-3.0681,-3.0721,-3.0788,-3.079,-3.084,-3.08,-3.0793,-3.0791,-3.0788,-3.0793,-3.0848,-3.0849,-3.085,-3.0851,0,-3.0055,-3.0069,-3.0131,-3.0199,-3.025,-3.0304,-3.0358,-3.039,-3.0427,-3.0476,-3.0549,-3.0594,-3.0684,-3.0754,-3.0823,-3.0857,-3.086,-3.0863,-3.0878,-3.0873,-3.0859,-3.0867,-3.0722,-3.0859,-3.0858,-3.0858,-3.0857,-3.0857,-3.0129,-3.018,-3.0237,-3.0306,-3.0349,-3.0399,-3.045,-3.0486,-3.0547,-3.0622,-3.0635,-3.0713,-3.0768,-3.0862,-3.0898,-3.0959,-3.0947,-3.0969,-3.0974,-3.0979,-3.0982,-3.085,-3.0971,-3.0971,-3.0971,-3.0971,-3.0971,0,-3.0241,-3.0278,-3.0341,-3.0416,-3.0469,-3.0468,-3.0527,-3.0572,-3.064,-3.0692,-3.075,-3.0833,-3.0901,-3.0947,-3.1016,-3.1055,-3.1058,-3.1072,-3.107,-3.1078,-3.0989,-3.0969,-3.1069,-3.1069,-3.1069,-3.1069,-3.1069,-3.1069,-3.0305,-3.039,-3.0411,-3.0517,-3.0554,-3.063,-3.0664,-3.071,-3.0752,-3.0845,-3.0902,-3.0931,-3.0981,-3.1053,-3.1116,-3.1127,-3.1152,-3.1167,-3.1178,-3.1094,-3.1084,-3.1074,-3.1056,-3.1172,-3.1172,-3.1262,-3.1263,-3.1263]}]]